Location: Yellowknife
(62.4500°N, 114.3500°W)
Time: 05:05:21
(UTC-06:00)

BlueWalker 3 - Visible Passes

Search period start: 28 March 2023 00:00
Search period end: 07 April 2023 00:00
Orbit: 497 x 514 km, 53.2° (Epoch: 28 March)

Date Brightness Start Highest point End Pass type
(mag) Time Alt. Az. Time Alt. Az. Time Alt. Az.
28 Mar 4.2 22:06:36 10° S 22:06:46 10° S 22:06:46 10° S visible
29 Mar 3.9 21:46:48 10° S 21:48:26 12° SSE 21:48:33 12° SSE visible
29 Mar 4.4 23:23:05 10° SW 23:23:20 11° SW 23:23:20 11° SW visible
30 Mar 3.9 21:27:00 10° S 21:28:42 13° SSE 21:30:06 11° SE visible
30 Mar 3.8 23:03:21 10° SW 23:04:52 17° SSW 23:04:52 17° SSW visible
31 Mar 4.0 21:07:12 10° S 21:08:58 13° SSE 21:10:45 10° SE visible
31 Mar 3.4 22:43:36 10° SW 22:46:14 20° S 22:46:14 20° S visible
01 Apr 3.4 22:23:51 10° SW 22:26:48 21° S 22:27:29 20° SSE visible
02 Apr 4.4 00:01:44 10° WSW 00:02:14 12° SW 00:02:14 12° SW visible
02 Apr 3.5 22:04:05 10° SW 22:07:03 21° S 22:08:37 16° SE visible
02 Apr 4.0 23:41:59 10° WSW 23:43:22 16° SW 23:43:22 16° SW visible
03 Apr 3.5 21:44:19 10° SW 21:47:17 21° S 21:49:42 13° SE visible
03 Apr 3.7 23:22:14 10° WSW 23:24:26 18° SSW 23:24:26 18° SSW visible
04 Apr 3.5 21:24:32 10° SW 21:27:30 21° S 21:30:28 10° SE visible
04 Apr 3.6 23:02:28 10° WSW 23:05:11 18° SSW 23:05:27 18° S visible
05 Apr 3.7 22:42:42 10° WSW 22:45:24 18° SSW 22:46:26 16° S visible
06 Apr 3.8 22:22:55 10° WSW 22:25:36 18° SSW 22:27:23 14° SSE visible
